TimeEDT,TemperatureF,Dew PointF,Humidity,Sea Level PressureIn,VisibilityMPH,Wind Direction,Wind SpeedMPH,Gust SpeedMPH,PrecipitationIn,Events,Conditions,WindDirDegrees,DateUTC
12:54 AM,66.9,64.9,93,30.10,6.0,Calm,Calm,-,N/A,,Clear,0,2013-08-22 04:54:00
1:54 AM,66.0,64.9,96,30.10,4.0,Calm,Calm,-,N/A,,Clear,0,2013-08-22 05:54:00
2:54 AM,66.9,66.0,97,30.09,5.0,Calm,Calm,-,N/A,,Mostly Cloudy,0,2013-08-22 06:54:00
3:54 AM,66.0,66.0,100,30.08,4.0,Calm,Calm,-,N/A,,Mostly Cloudy,0,2013-08-22 07:54:00
4:52 AM,66.2,66.2,100,30.10,5.0,SW,4.6,-,N/A,,Mostly Cloudy,230,2013-08-22 08:52:00
4:54 AM,66.0,66.0,100,30.07,5.0,Variable,3.5,-,N/A,,Mostly Cloudy,0,2013-08-22 08:54:00
5:54 AM,64.9,64.9,100,30.06,4.0,South,3.5,-,N/A,,Overcast,190,2013-08-22 09:54:00
6:00 AM,64.4,64.4,100,30.09,3.0,SSW,4.6,-,N/A,,Overcast,200,2013-08-22 10:00:00
6:09 AM,64.4,64.4,100,30.09,3.0,SSW,5.8,-,N/A,,Overcast,200,2013-08-22 10:09:00
6:33 AM,66.2,66.2,100,30.10,3.0,SSW,4.6,-,N/A,,Overcast,200,2013-08-22 10:33:00
6:54 AM,66.0,66.0,100,30.07,3.0,SW,4.6,-,N/A,,Mostly Cloudy,220,2013-08-22 10:54:00
7:05 AM,66.2,66.2,100,30.10,3.0,SW,4.6,-,N/A,,Scattered Clouds,220,2013-08-22 11:05:00
7:22 AM,66.2,66.2,100,30.10,2.5,SSW,4.6,-,N/A,,Scattered Clouds,210,2013-08-22 11:22:00
7:31 AM,66.2,66.2,100,30.10,3.0,SW,6.9,-,N/A,,Mostly Cloudy,220,2013-08-22 11:31:00
7:54 AM,66.0,66.0,100,30.09,4.0,SW,5.8,-,N/A,,Overcast,220,2013-08-22 11:54:00
8:54 AM,68.0,66.0,93,30.08,7.0,SW,6.9,-,N/A,,Overcast,220,2013-08-22 12:54:00
9:03 AM,68.0,66.2,94,30.10,7.0,South,5.8,-,N/A,,Overcast,190,2013-08-22 13:03:00
9:22 AM,66.2,64.4,94,30.10,8.0,SW,9.2,-,N/A,,Overcast,230,2013-08-22 13:22:00
9:39 AM,66.2,64.4,94,30.11,7.0,SSW,8.1,-,N/A,,Overcast,210,2013-08-22 13:39:00
9:54 AM,66.9,64.9,93,30.10,7.0,SW,6.9,-,N/A,,Overcast,220,2013-08-22 13:54:00
10:18 AM,68.0,66.2,94,30.12,8.0,SSW,6.9,-,N/A,,Overcast,210,2013-08-22 14:18:00
10:54 AM,72.0,66.0,81,30.09,10.0,SSW,6.9,-,N/A,,Overcast,210,2013-08-22 14:54:00
11:16 AM,71.6,64.4,78,30.10,10.0,Variable,4.6,-,N/A,,Mostly Cloudy,0,2013-08-22 15:16:00
11:54 AM,73.9,66.0,76,30.07,10.0,South,9.2,-,N/A,,Mostly Cloudy,190,2013-08-22 15:54:00
12:06 PM,75.2,66.2,73,30.09,10.0,SW,9.2,-,N/A,,Scattered Clouds,220,2013-08-22 16:06:00
12:23 PM,75.2,66.2,73,30.09,10.0,SW,6.9,-,N/A,,Mostly Cloudy,220,2013-08-22 16:23:00
12:54 PM,78.1,66.9,68,30.05,10.0,WSW,9.2,-,N/A,,Mostly Cloudy,240,2013-08-22 16:54:00
1:08 PM,78.8,66.2,65,30.07,10.0,WSW,8.1,-,N/A,,Mostly Cloudy,250,2013-08-22 17:08:00
1:54 PM,80.1,66.0,62,30.03,10.0,WSW,10.4,-,N/A,,Scattered Clouds,240,2013-08-22 17:54:00
2:54 PM,81.0,64.0,56,29.99,10.0,WSW,11.5,17.3,N/A,,Partly Cloudy,250,2013-08-22 18:54:00
3:23 PM,82.4,64.4,54,30.01,10.0,WSW,8.1,-,N/A,Thunderstorm,Scattered Clouds,240,2013-08-22 19:23:00
3:54 PM,77.0,66.9,71,29.98,10.0,WSW,6.9,-,0.00,Rain-Thunderstorm,Light Rain,250,2013-08-22 19:54:00
4:12 PM,78.8,68.0,69,30.00,10.0,SW,6.9,-,0.00,,Scattered Clouds,220,2013-08-22 20:12:00
4:54 PM,79.0,68.0,69,29.97,10.0,WSW,10.4,-,0.00,,Partly Cloudy,240,2013-08-22 20:54:00
5:54 PM,78.1,66.0,66,29.96,10.0,WSW,12.7,17.3,N/A,,Partly Cloudy,240,2013-08-22 21:54:00
6:47 PM,77.0,68.0,74,29.99,10.0,WSW,12.7,-,N/A,Thunderstorm,Partly Cloudy,250,2013-08-22 22:47:00
6:54 PM,77.0,68.0,74,29.96,10.0,WSW,8.1,-,N/A,Thunderstorm,Thunderstorm,240,2013-08-22 22:54:00
7:28 PM,69.8,68.0,94,30.00,1.0,East,9.2,-,0.43,Rain-Thunderstorm,Heavy Thunderstorms and Rain,100,2013-08-22 23:28:00
7:37 PM,69.8,69.8,100,30.01,0.8,NW,6.9,-,0.64,Rain-Thunderstorm,Heavy Thunderstorms and Rain,320,2013-08-22 23:37:00
7:42 PM,69.8,69.8,100,30.02,1.0,Variable,4.6,-,0.69,Rain-Thunderstorm,Heavy Thunderstorms and Rain,0,2013-08-22 23:42:00
7:54 PM,69.1,68.0,96,29.99,1.2,Calm,Calm,-,0.77,Rain-Thunderstorm,Light Thunderstorms and Rain,0,2013-08-22 23:54:00
7:57 PM,69.8,68.0,94,30.02,4.0,WSW,8.1,-,0.00,Rain-Thunderstorm,Light Thunderstorms and Rain,240,2013-08-22 23:57:00
8:22 PM,68.0,68.0,100,30.03,8.0,SSW,4.6,-,0.00,,Partly Cloudy,200,2013-08-23 00:22:00
8:47 PM,66.2,66.2,100,30.03,1.8,North,4.6,-,0.00,,Partly Cloudy,350,2013-08-23 00:47:00
8:54 PM,66.9,66.9,100,30.01,1.2,Calm,Calm,-,0.00,,Partly Cloudy,0,2013-08-23 00:54:00
8:58 PM,66.2,66.2,100,30.03,4.0,North,3.5,-,N/A,,Partly Cloudy,350,2013-08-23 00:58:00
9:21 PM,66.2,66.2,100,30.04,2.5,Calm,Calm,-,N/A,,Clear,0,2013-08-23 01:21:00
9:28 PM,66.2,66.2,100,30.04,5.0,Calm,Calm,-,N/A,,Clear,0,2013-08-23 01:28:00
9:54 PM,66.9,66.9,100,30.02,7.0,Calm,Calm,-,N/A,,Clear,0,2013-08-23 01:54:00
10:29 PM,66.2,66.2,100,30.04,1.8,Calm,Calm,-,N/A,,Partly Cloudy,0,2013-08-23 02:29:00
10:54 PM,66.0,66.0,100,30.02,3.0,Calm,Calm,-,N/A,,Partly Cloudy,0,2013-08-23 02:54:00
10:58 PM,64.4,64.4,100,30.04,1.5,Calm,Calm,-,N/A,,Partly Cloudy,0,2013-08-23 02:58:00
11:04 PM,64.4,64.4,100,30.04,0.2,Calm,Calm,-,N/A,Fog,Fog,0,2013-08-23 03:04:00
11:48 PM,64.4,64.4,100,30.05,1.0,SW,3.5,-,N/A,,Mist,230,2013-08-23 03:48:00
11:52 PM,64.4,64.4,100,30.05,2.5,Calm,Calm,-,N/A,,Mostly Cloudy,0,2013-08-23 03:52:00
11:54 PM,64.9,64.9,100,30.03,4.0,Calm,Calm,-,N/A,,Mostly Cloudy,0,2013-08-23 03:54:00
11:56 PM,64.4,64.4,100,30.05,1.2,Variable,3.5,-,N/A,,Mostly Cloudy,0,2013-08-23 03:56:00